This is the latest recevied weather packets stored in our database for station/object N1HQ. If no packets are shown the sender has not sent any weather packets the latest 10 day(s).
| Time | Temp. | Humidity | Pressure | Rain* | Wind** | Luminosity | Snow |
|---|---|---|---|---|---|---|---|
| 1787940803 | 31.67° C | 78% | 1014.3 hPa | 0 mm | - | - | - |
| 1787940511 | 31.67° C | 76% | 1014.3 hPa | 0 mm | - | - | - |
| 1787940271 | 31.67° C | 77% | 1014.3 hPa | 0 mm | - | - | - |
| 1787940018 | 31.11° C | 78% | 1014.3 hPa | 0 mm | - | - | - |
| 1787939743 | 31.11° C | 78% | 1014.2 hPa | 0 mm | - | - | - |
| 1787939499 | 31.11° C | 79% | 1014.1 hPa | 0 mm | - | - | - |
| 1787939258 | 31.11° C | 77% | 1014 hPa | 0 mm | - | - | - |
| 1787938988 | 30.56° C | 79% | 1014.1 hPa | 0 mm | - | - | - |
| 1787938703 | 30.56° C | 80% | 1014.2 hPa | 0 mm | - | - | - |
| 1787938428 | 31.11° C | 79% | 1014.4 hPa | 0 mm | - | - | - |
| 1787938148 | 30.56° C | 79% | 1014.5 hPa | 0 mm | - | - | - |
| 1787937893 | 30.56° C | 80% | 1014.8 hPa | 0 mm | - | - | - |
| 1787937598 | 30.56° C | 80% | 1014.8 hPa | 0 mm | - | - | - |
| 1787937317 | 30.56° C | 82% | 1014.9 hPa | 0 mm | - | - | - |
| 1787937048 | 30.56° C | 82% | 1015.1 hPa | 0 mm | - | - | - |
| 1787936757 | 30° C | 83% | 1015.2 hPa | 0 mm | - | - | - |
| 1787936471 | 29.44° C | 83% | 1015.4 hPa | 0 mm | - | - | - |
| 1787936208 | 29.44° C | 83% | 1015.5 hPa | 0 mm | - | - | - |
| 1787935942 | 29.44° C | 86% | 1015.5 hPa | 0 mm | - | - | - |
| 1787935668 | 28.89° C | 84% | 1015.5 hPa | 0 mm | - | - | - |
| 1787935371 | 28.89° C | 86% | 1015.6 hPa | 0 mm | - | - | - |
| 1787935083 | 28.89° C | 86% | 1015.6 hPa | 0 mm | - | - | - |
| 1787934838 | 28.89° C | 85% | 1015.6 hPa | 0 mm | - | - | - |
| 1787934543 | 28.33° C | 86% | 1015.7 hPa | 0 mm | - | - | - |
| 1787934271 | 28.33° C | 86% | 1015.6 hPa | 0 mm | - | - | - |
* Rain latest hour (hover to see other rain measurements)
** Current wind speed in m/s (hover to see current wind gust speed)